owner,sensor,date,latitude,longitude,vertical_datum,direction_of_sea_water_velocity,sea_water_speed,upward_sea_water_velocity,qcFlag 
TABS,ioos:station:wmo:42048:1,2017-10-01T00:00:00Z,27.9396,-96.8429,2.0,216.2357962,52.07118589,-99999.0,'11111222,11111222,99999999' 
TABS,ioos:station:wmo:42048:1,2017-10-01T00:30:00Z,27.9396,-96.8429,2.0,219.5671571,51.75935568,-99999.0,'11111222,11111222,99999999' 
TABS,ioos:station:wmo:42048:1,2017-10-01T01:00:00Z,27.9396,-96.8429,2.0,223.7302229,55.53565521,-99999.0,'11111222,11111222,99999999' 
TABS,ioos:station:wmo:42048:1,2017-10-01T01:30:00Z,27.9396,-96.8429,2.0,212.968428,56.61718909,-99999.0,'11111222,11111222,99999999' 
TABS,ioos:station:wmo:42048:1,2017-10-01T02:00:00Z,27.9396,-96.8429,2.0,215.7648196,57.98477904,-99999.0,'11111222,11111222,99999999' 
TABS,ioos:station:wmo:42048:1,2017-10-01T02:30:00Z,27.9396,-96.8429,2.0,222.7642182,58.73456223,-99999.0,'11111222,11111222,99999999' 
TABS,ioos:station:wmo:42048:1,2017-10-01T03:00:00Z,27.9396,-96.8429,2.0,220.4515621,50.73912199,-99999.0,'11111222,11111222,99999999' 
TABS,ioos:station:wmo:42048:1,2017-10-01T03:30:00Z,27.9396,-96.8429,2.0,220.3339484,51.89683709,-99999.0,'11111222,11111222,99999999' 
TABS,ioos:station:wmo:42048:1,2017-10-01T04:00:00Z,27.9396,-96.8429,2.0,217.3319245,47.58954927,-99999.0,'11111222,11111222,99999999' 
TABS,ioos:station:wmo:42048:1,2017-10-01T04:30:00Z,27.9396,-96.8429,2.0,211.1019494,41.15635066,-99999.0,'11111222,11111222,99999999' 
TABS,ioos:station:wmo:42048:1,2017-10-01T05:00:00Z,27.9396,-96.8429,2.0,209.3907729,42.17881577,-99999.0,'11111222,11111222,99999999' 
TABS,ioos:station:wmo:42048:1,2017-10-01T05:30:00Z,27.9396,-96.8429,2.0,209.6405763,41.67325881,-99999.0,'11111222,11111222,99999999' 
TABS,ioos:station:wmo:42048:1,2017-10-01T06:00:00Z,27.9396,-96.8429,2.0,211.9084222,45.85981356,-99999.0,'11111222,11111222,99999999' 
TABS,ioos:station:wmo:42048:1,2017-10-01T06:30:00Z,27.9396,-96.8429,2.0,214.7807332,40.93320046,-99999.0,'11111222,11111222,99999999' 
TABS,ioos:station:wmo:42048:1,2017-10-01T07:00:00Z,27.9396,-96.8429,2.0,219.1436844,47.12711534,-99999.0,'11111222,11111222,99999999' 
TABS,ioos:station:wmo:42048:1,2017-10-01T07:30:00Z,27.9396,-96.8429,2.0,221.1663884,44.84604776,-99999.0,'11111222,11111222,99999999' 
TABS,ioos:station:wmo:42048:1,2017-10-01T08:00:00Z,27.9396,-96.8429,2.0,220.3474814,49.51920032,-99999.0,'11111222,11111222,99999999' 
TABS,ioos:station:wmo:42048:1,2017-10-01T08:30:00Z,27.9396,-96.8429,2.0,219.4619201,48.28741554,-99999.0,'11111222,11111222,99999999' 
TABS,ioos:station:wmo:42048:1,2017-10-01T09:00:00Z,27.9396,-96.8429,2.0,219.0268266,51.64460088,-99999.0,'11111222,11111222,99999999' 
TABS,ioos:station:wmo:42048:1,2017-10-01T09:30:00Z,27.9396,-96.8429,2.0,209.4801686,47.56906768,-99999.0,'11111222,11111222,99999999' 
TABS,ioos:station:wmo:42048:1,2017-10-01T10:00:00Z,27.9396,-96.8429,2.0,211.6763639,43.97049579,-99999.0,'11111222,11111222,99999999' 
TABS,ioos:station:wmo:42048:1,2017-10-01T10:30:00Z,27.9396,-96.8429,2.0,212.2691989,41.39335695,-99999.0,'11111222,11111222,99999999' 
TABS,ioos:station:wmo:42048:1,2017-10-01T11:00:00Z,27.9396,-96.8429,2.0,211.9540778,41.66323319,-99999.0,'11111222,11111222,99999999' 
TABS,ioos:station:wmo:42048:1,2017-10-01T11:30:00Z,27.9396,-96.8429,2.0,212.9263528,44.9624421,-99999.0,'11111222,11111222,99999999' 
TABS,ioos:station:wmo:42048:1,2017-10-01T12:00:00Z,27.9396,-96.8429,2.0,219.3727095,49.18292793,-99999.0,'11111222,11111222,99999999' 
TABS,ioos:station:wmo:42048:1,2017-10-01T12:30:00Z,27.9396,-96.8429,2.0,221.4233583,49.87744981,-99999.0,'11111222,11111222,99999999' 
TABS,ioos:station:wmo:42048:1,2017-10-01T13:00:00Z,27.9396,-96.8429,2.0,222.2220993,54.86523307,-99999.0,'11111222,11111222,99999999' 
TABS,ioos:station:wmo:42048:1,2017-10-01T13:30:00Z,27.9396,-96.8429,2.0,220.8887472,53.55972087,-99999.0,'11111222,11111222,99999999' 
TABS,ioos:station:wmo:42048:1,2017-10-01T14:00:00Z,27.9396,-96.8429,2.0,219.7219987,55.5027657,-99999.0,'11111222,11111222,99999999' 
TABS,ioos:station:wmo:42048:1,2017-10-01T14:30:00Z,27.9396,-96.8429,2.0,222.1014919,54.26206778,-99999.0,'11111222,11111222,99999999' 
TABS,ioos:station:wmo:42048:1,2017-10-01T15:00:00Z,27.9396,-96.8429,2.0,221.3173849,58.90339294,-99999.0,'11111222,11111222,99999999' 
TABS,ioos:station:wmo:42048:1,2017-10-01T15:30:00Z,27.9396,-96.8429,2.0,220.1027959,63.12047211,-99999.0,'11111222,11111222,99999999' 
TABS,ioos:station:wmo:42048:1,2017-10-01T16:00:00Z,27.9396,-96.8429,2.0,215.8780614,65.29977795,-99999.0,'11111222,11111222,99999999' 
TABS,ioos:station:wmo:42048:1,2017-10-01T16:30:00Z,27.9396,-96.8429,2.0,214.9778011,64.03690342,-99999.0,'11111222,11111222,99999999' 
TABS,ioos:station:wmo:42048:1,2017-10-01T17:00:00Z,27.9396,-96.8429,2.0,216.9732037,69.68211392,-99999.0,'11111222,11111222,99999999' 
TABS,ioos:station:wmo:42048:1,2017-10-01T17:30:00Z,27.9396,-96.8429,2.0,216.1477477,70.16756872,-99999.0,'11111222,11111222,99999999' 
TABS,ioos:station:wmo:42048:1,2017-10-01T18:00:00Z,27.9396,-96.8429,2.0,221.0641403,66.55426959,-99999.0,'11111222,11111222,99999999' 
TABS,ioos:station:wmo:42048:1,2017-10-01T18:30:00Z,27.9396,-96.8429,2.0,219.8488231,65.68677949,-99999.0,'11111222,11111222,99999999' 
TABS,ioos:station:wmo:42048:1,2017-10-01T19:00:00Z,27.9396,-96.8429,2.0,218.3882141,64.97682202,-99999.0,'11111222,11111222,99999999' 
TABS,ioos:station:wmo:42048:1,2017-10-01T19:30:00Z,27.9396,-96.8429,2.0,218.9576535,64.82704451,-99999.0,'11111222,11111222,99999999' 
TABS,ioos:station:wmo:42048:1,2017-10-01T20:00:00Z,27.9396,-96.8429,2.0,215.2115781,62.55619074,-99999.0,'11111222,11111222,99999999' 
TABS,ioos:station:wmo:42048:1,2017-10-01T20:30:00Z,27.9396,-96.8429,2.0,210.8346852,64.08918317,-99999.0,'11111222,11111222,99999999' 
TABS,ioos:station:wmo:42048:1,2017-10-01T21:00:00Z,27.9396,-96.8429,2.0,214.69661,62.18872004,-99999.0,'11111222,11111222,99999999' 
TABS,ioos:station:wmo:42048:1,2017-10-01T21:30:00Z,27.9396,-96.8429,2.0,216.3753637,61.44228593,-99999.0,'11111222,11111222,99999999' 
TABS,ioos:station:wmo:42048:1,2017-10-01T22:00:00Z,27.9396,-96.8429,2.0,234.2993721,49.97041125,-99999.0,'11111222,11111222,99999999' 
TABS,ioos:station:wmo:42048:1,2017-10-01T22:30:00Z,27.9396,-96.8429,2.0,270.0538384,53.63002331,-99999.0,'11111222,11111222,99999999' 
TABS,ioos:station:wmo:42048:1,2017-10-01T23:00:00Z,27.9396,-96.8429,2.0,267.3292892,51.08547054,-99999.0,'11111222,11111222,99999999' 
TABS,ioos:station:wmo:42048:1,2017-10-01T23:30:00Z,27.9396,-96.8429,2.0,258.4836026,43.0771877,-99999.0,'11111222,11111222,99999999' 
TABS,ioos:station:wmo:42048:1,2017-10-02T00:00:00Z,27.9396,-96.8429,2.0,263.4166317,43.0035266,-99999.0,'11111222,11111222,99999999' 
TABS,ioos:station:wmo:42048:1,2017-10-02T00:30:00Z,27.9396,-96.8429,2.0,263.8453121,50.37029283,-99999.0,'11111222,11111222,99999999' 
TABS,ioos:station:wmo:42048:1,2017-10-02T01:00:00Z,27.9396,-96.8429,2.0,262.8620766,45.47237513,-99999.0,'11111222,11111222,99999999' 
TABS,ioos:station:wmo:42048:1,2017-10-02T01:30:00Z,27.9396,-96.8429,2.0,264.5759898,47.08077527,-99999.0,'11111222,11111222,99999999' 
TABS,ioos:station:wmo:42048:1,2017-10-02T02:00:00Z,27.9396,-96.8429,2.0,267.3992292,47.16857004,-99999.0,'11111222,11111222,99999999' 
TABS,ioos:station:wmo:42048:1,2017-10-02T02:30:00Z,27.9396,-96.8429,2.0,263.7383499,43.27815615,-99999.0,'11111222,11111222,99999999' 
TABS,ioos:station:wmo:42048:1,2017-10-02T03:00:00Z,27.9396,-96.8429,2.0,264.070403,44.33718981,-99999.0,'11111222,11111222,99999999' 
TABS,ioos:station:wmo:42048:1,2017-10-02T03:30:00Z,27.9396,-96.8429,2.0,266.3255701,43.53948323,-99999.0,'11111222,11111222,99999999' 
TABS,ioos:station:wmo:42048:1,2017-10-02T04:00:00Z,27.9396,-96.8429,2.0,247.093863,37.76816252,-99999.0,'11111222,11111222,99999999' 
TABS,ioos:station:wmo:42048:1,2017-10-02T04:30:00Z,27.9396,-96.8429,2.0,247.6846248,33.97432707,-99999.0,'11111222,11111222,99999999' 
TABS,ioos:station:wmo:42048:1,2017-10-02T05:00:00Z,27.9396,-96.8429,2.0,240.6760849,31.0368104,-99999.0,'11111222,11111222,99999999' 
TABS,ioos:station:wmo:42048:1,2017-10-02T05:30:00Z,27.9396,-96.8429,2.0,237.8408225,29.68428709,-99999.0,'11111222,11111222,99999999' 
TABS,ioos:station:wmo:42048:1,2017-10-02T06:00:00Z,27.9396,-96.8429,2.0,235.1603118,28.90014706,-99999.0,'11111222,11111222,99999999' 
TABS,ioos:station:wmo:42048:1,2017-10-02T06:30:00Z,27.9396,-96.8429,2.0,225.2562303,28.42597756,-99999.0,'11111222,11111222,99999999' 
TABS,ioos:station:wmo:42048:1,2017-10-02T07:00:00Z,27.9396,-96.8429,2.0,231.2731467,29.50749057,-99999.0,'11111222,11111222,99999999' 
TABS,ioos:station:wmo:42048:1,2017-10-02T07:30:00Z,27.9396,-96.8429,2.0,225.0284183,28.19942198,-99999.0,'11111222,11111222,99999999' 
TABS,ioos:station:wmo:42048:1,2017-10-02T08:00:00Z,27.9396,-96.8429,2.0,221.7724266,27.00480883,-99999.0,'11111222,11111222,99999999' 
TABS,ioos:station:wmo:42048:1,2017-10-02T08:30:00Z,27.9396,-96.8429,2.0,242.4302723,29.34171945,-99999.0,'11111222,11111222,99999999' 
TABS,ioos:station:wmo:42048:1,2017-10-02T09:00:00Z,27.9396,-96.8429,2.0,237.9865268,31.37063755,-99999.0,'11111222,11111222,99999999' 
TABS,ioos:station:wmo:42048:1,2017-10-02T09:30:00Z,27.9396,-96.8429,2.0,234.1493947,30.68285841,-99999.0,'11111222,11111222,99999999' 
TABS,ioos:station:wmo:42048:1,2017-10-02T10:00:00Z,27.9396,-96.8429,2.0,236.2786726,30.8385619,-99999.0,'11111222,11111222,99999999' 
TABS,ioos:station:wmo:42048:1,2017-10-02T10:30:00Z,27.9396,-96.8429,2.0,235.5316292,26.96368855,-99999.0,'11111222,11111222,99999999' 
TABS,ioos:station:wmo:42048:1,2017-10-02T11:00:00Z,27.9396,-96.8429,2.0,237.6288932,29.75368549,-99999.0,'11111222,11111222,99999999' 
TABS,ioos:station:wmo:42048:1,2017-10-02T11:30:00Z,27.9396,-96.8429,2.0,236.5489191,29.87918674,-99999.0,'11111222,11111222,99999999' 
TABS,ioos:station:wmo:42048:1,2017-10-02T12:00:00Z,27.9396,-96.8429,2.0,238.0266972,31.84022142,-99999.0,'11111222,11111222,99999999' 
TABS,ioos:station:wmo:42048:1,2017-10-02T12:30:00Z,27.9396,-96.8429,2.0,235.5915994,31.4290073,-99999.0,'11111222,11111222,99999999' 
TABS,ioos:station:wmo:42048:1,2017-10-02T13:00:00Z,27.9396,-96.8429,2.0,231.5356182,30.62585346,-99999.0,'11111222,11111222,99999999' 
TABS,ioos:station:wmo:42048:1,2017-10-02T13:30:00Z,27.9396,-96.8429,2.0,240.6202848,30.33083085,-99999.0,'11111222,11111222,99999999' 
TABS,ioos:station:wmo:42048:1,2017-10-02T14:00:00Z,27.9396,-96.8429,2.0,240.0092161,30.38878905,-99999.0,'11111222,11111222,99999999' 
TABS,ioos:station:wmo:42048:1,2017-10-02T14:30:00Z,27.9396,-96.8429,2.0,238.7216624,31.89578656,-99999.0,'11111222,11111222,99999999' 
TABS,ioos:station:wmo:42048:1,2017-10-02T15:00:00Z,27.9396,-96.8429,2.0,252.6990923,27.47292849,-99999.0,'11111222,11111222,99999999' 
TABS,ioos:station:wmo:42048:1,2017-10-02T15:30:00Z,27.9396,-96.8429,2.0,252.0358838,29.99205561,-99999.0,'11111222,11111222,99999999' 
TABS,ioos:station:wmo:42048:1,2017-10-02T16:00:00Z,27.9396,-96.8429,2.0,252.2048215,33.96498197,-99999.0,'11111222,11111222,99999999' 
TABS,ioos:station:wmo:42048:1,2017-10-02T16:30:00Z,27.9396,-96.8429,2.0,256.6109181,27.89822933,-99999.0,'11111222,11111222,99999999' 
TABS,ioos:station:wmo:42048:1,2017-10-02T17:00:00Z,27.9396,-96.8429,2.0,259.2939961,36.4443274,-99999.0,'11111222,11111222,99999999' 
TABS,ioos:station:wmo:42048:1,2017-10-02T17:30:00Z,27.9396,-96.8429,2.0,255.5473447,35.74099187,-99999.0,'11111222,11111222,99999999' 
TABS,ioos:station:wmo:42048:1,2017-10-02T18:00:00Z,27.9396,-96.8429,2.0,255.2082738,36.62363445,-99999.0,'11111222,11111222,99999999' 
TABS,ioos:station:wmo:42048:1,2017-10-02T18:30:00Z,27.9396,-96.8429,2.0,253.9761585,41.33595287,-99999.0,'11111222,11111222,99999999' 
TABS,ioos:station:wmo:42048:1,2017-10-02T19:00:00Z,27.9396,-96.8429,2.0,252.5315967,40.47659324,-99999.0,'11111222,11111222,99999999' 
TABS,ioos:station:wmo:42048:1,2017-10-02T19:30:00Z,27.9396,-96.8429,2.0,249.7768451,40.84805136,-99999.0,'11111222,11111222,99999999' 
TABS,ioos:station:wmo:42048:1,2017-10-02T20:00:00Z,27.9396,-96.8429,2.0,250.5832787,40.24904968,-99999.0,'11111222,11111222,99999999' 
TABS,ioos:station:wmo:42048:1,2017-10-02T20:30:00Z,27.9396,-96.8429,2.0,248.7035972,41.0532654,-99999.0,'11111222,11111222,99999999' 
TABS,ioos:station:wmo:42048:1,2017-10-02T21:00:00Z,27.9396,-96.8429,2.0,246.1382436,41.43126476,-99999.0,'11111222,11111222,99999999' 
TABS,ioos:station:wmo:42048:1,2017-10-02T21:30:00Z,27.9396,-96.8429,2.0,241.5280965,41.80630814,-99999.0,'11111222,11111222,99999999' 
TABS,ioos:station:wmo:42048:1,2017-10-02T22:00:00Z,27.9396,-96.8429,2.0,236.3095903,41.8243948,-99999.0,'11111222,11111222,99999999' 
TABS,ioos:station:wmo:42048:1,2017-10-02T22:30:00Z,27.9396,-96.8429,2.0,233.2795118,40.55813852,-99999.0,'11111222,11111222,99999999' 
TABS,ioos:station:wmo:42048:1,2017-10-02T23:00:00Z,27.9396,-96.8429,2.0,229.0865846,44.64711861,-99999.0,'11111222,11111222,99999999' 
TABS,ioos:station:wmo:42048:1,2017-10-02T23:30:00Z,27.9396,-96.8429,2.0,222.8464547,44.7914858,-99999.0,'11111222,11111222,99999999' 
TABS,ioos:station:wmo:42048:1,2017-10-03T00:00:00Z,27.9396,-96.8429,2.0,225.5989513,44.62087852,-99999.0,'11111222,11111222,99999999' 
TABS,ioos:station:wmo:42048:1,2017-10-03T00:30:00Z,27.9396,-96.8429,2.0,221.3189634,44.05878119,-99999.0,'11111222,11111222,99999999' 
TABS,ioos:station:wmo:42048:1,2017-10-03T01:00:00Z,27.9396,-96.8429,2.0,221.0395104,48.32592886,-99999.0,'11111222,11111222,99999999' 
TABS,ioos:station:wmo:42048:1,2017-10-03T01:30:00Z,27.9396,-96.8429,2.0,223.21179,50.31392849,-99999.0,'11111222,11111222,99999999' 
TABS,ioos:station:wmo:42048:1,2017-10-03T02:00:00Z,27.9396,-96.8429,2.0,223.0165882,51.28888866,-99999.0,'11111222,11111222,99999999' 
TABS,ioos:station:wmo:42048:1,2017-10-03T02:30:00Z,27.9396,-96.8429,2.0,217.2062537,55.48295774,-99999.0,'11111222,11111222,99999999' 
TABS,ioos:station:wmo:42048:1,2017-10-03T03:00:00Z,27.9396,-96.8429,2.0,217.3297971,59.76192768,-99999.0,'11111222,11111222,99999999' 
TABS,ioos:station:wmo:42048:1,2017-10-03T03:30:00Z,27.9396,-96.8429,2.0,221.255309,64.96623123,-99999.0,'11111222,11111222,99999999' 
TABS,ioos:station:wmo:42048:1,2017-10-03T04:00:00Z,27.9396,-96.8429,2.0,218.1192635,70.06266409,-99999.0,'11111222,11111222,99999999' 
TABS,ioos:station:wmo:42048:1,2017-10-03T04:30:00Z,27.9396,-96.8429,2.0,216.7535418,73.0641499,-99999.0,'11111222,11111222,99999999' 
TABS,ioos:station:wmo:42048:1,2017-10-03T05:00:00Z,27.9396,-96.8429,2.0,217.5071112,77.65280677,-99999.0,'11111222,11111222,99999999' 
TABS,ioos:station:wmo:42048:1,2017-10-03T05:30:00Z,27.9396,-96.8429,2.0,216.2985876,92.31458444,-99999.0,'11111222,11111222,99999999' 
TABS,ioos:station:wmo:42048:1,2017-10-03T06:00:00Z,27.9396,-96.8429,2.0,218.4492935,96.20056133,-99999.0,'11111222,11111222,99999999' 
TABS,ioos:station:wmo:42048:1,2017-10-03T06:30:00Z,27.9396,-96.8429,2.0,224.741757,80.10893895,-99999.0,'11111222,11111222,99999999' 
TABS,ioos:station:wmo:42048:1,2017-10-03T07:00:00Z,27.9396,-96.8429,2.0,229.6228461,72.81435161,-99999.0,'11111222,11111222,99999999' 
TABS,ioos:station:wmo:42048:1,2017-10-03T07:30:00Z,27.9396,-96.8429,2.0,231.8102969,76.08417444,-99999.0,'11111222,11111222,99999999' 
TABS,ioos:station:wmo:42048:1,2017-10-03T08:00:00Z,27.9396,-96.8429,2.0,233.1479731,75.53200381,-99999.0,'11111222,11111222,99999999' 
TABS,ioos:station:wmo:42048:1,2017-10-03T08:30:00Z,27.9396,-96.8429,2.0,236.5763809,81.00652134,-99999.0,'11111222,11111222,99999999' 
TABS,ioos:station:wmo:42048:1,2017-10-03T09:00:00Z,27.9396,-96.8429,2.0,238.9544041,78.37664767,-99999.0,'11111222,11111222,99999999' 
TABS,ioos:station:wmo:42048:1,2017-10-03T09:30:00Z,27.9396,-96.8429,2.0,239.4780335,79.78523234,-99999.0,'11111222,11111222,99999999' 
TABS,ioos:station:wmo:42048:1,2017-10-03T10:00:00Z,27.9396,-96.8429,2.0,242.3306007,75.43657601,-99999.0,'11111222,11111222,99999999' 
TABS,ioos:station:wmo:42048:1,2017-10-03T10:30:00Z,27.9396,-96.8429,2.0,244.8578593,70.39972301,-99999.0,'11111222,11111222,99999999' 
TABS,ioos:station:wmo:42048:1,2017-10-03T11:00:00Z,27.9396,-96.8429,2.0,244.3434486,62.59094503,-99999.0,'11111222,11111222,99999999' 
TABS,ioos:station:wmo:42048:1,2017-10-03T11:30:00Z,27.9396,-96.8429,2.0,244.3170164,61.56178035,-99999.0,'11111222,11111222,99999999' 
TABS,ioos:station:wmo:42048:1,2017-10-03T12:00:00Z,27.9396,-96.8429,2.0,240.8925632,63.62507839,-99999.0,'11111222,11111222,99999999' 
TABS,ioos:station:wmo:42048:1,2017-10-03T12:30:00Z,27.9396,-96.8429,2.0,241.9104065,60.35941434,-99999.0,'11111222,11111222,99999999' 
TABS,ioos:station:wmo:42048:1,2017-10-03T13:00:00Z,27.9396,-96.8429,2.0,239.1693599,60.37109573,-99999.0,'11111222,11111222,99999999' 
TABS,ioos:station:wmo:42048:1,2017-10-03T13:30:00Z,27.9396,-96.8429,2.0,234.2298973,57.39658004,-99999.0,'11111222,11111222,99999999' 
TABS,ioos:station:wmo:42048:1,2017-10-03T14:00:00Z,27.9396,-96.8429,2.0,243.8605721,58.94885325,-99999.0,'11111222,11111222,99999999' 
TABS,ioos:station:wmo:42048:1,2017-10-03T14:30:00Z,27.9396,-96.8429,2.0,240.5903163,55.06616475,-99999.0,'11111222,11111222,99999999' 
TABS,ioos:station:wmo:42048:1,2017-10-03T15:00:00Z,27.9396,-96.8429,2.0,233.9746075,54.52792771,-99999.0,'11111222,11111222,99999999' 
TABS,ioos:station:wmo:42048:1,2017-10-03T15:30:00Z,27.9396,-96.8429,2.0,237.6741866,50.66126923,-99999.0,'11111222,11111222,99999999' 
TABS,ioos:station:wmo:42048:1,2017-10-03T16:00:00Z,27.9396,-96.8429,2.0,234.4619844,50.58167257,-99999.0,'11111222,11111222,99999999' 
TABS,ioos:station:wmo:42048:1,2017-10-03T16:30:00Z,27.9396,-96.8429,2.0,231.9814343,46.30529991,-99999.0,'11111222,11111222,99999999' 
TABS,ioos:station:wmo:42048:1,2017-10-03T17:00:00Z,27.9396,-96.8429,2.0,225.7660429,43.87990087,-99999.0,'11111222,11111222,99999999' 
TABS,ioos:station:wmo:42048:1,2017-10-03T17:30:00Z,27.9396,-96.8429,2.0,226.2225305,47.71228982,-99999.0,'11111222,11111222,99999999' 
TABS,ioos:station:wmo:42048:1,2017-10-03T18:00:00Z,27.9396,-96.8429,2.0,231.7090448,51.38379608,-99999.0,'11111222,11111222,99999999' 
TABS,ioos:station:wmo:42048:1,2017-10-03T18:30:00Z,27.9396,-96.8429,2.0,233.4050715,53.69461984,-99999.0,'11111222,11111222,99999999' 
TABS,ioos:station:wmo:42048:1,2017-10-03T19:00:00Z,27.9396,-96.8429,2.0,233.7373783,54.69307543,-99999.0,'11111222,11111222,99999999' 
TABS,ioos:station:wmo:42048:1,2017-10-03T19:30:00Z,27.9396,-96.8429,2.0,232.7994674,56.89694544,-99999.0,'11111222,11111222,99999999' 
TABS,ioos:station:wmo:42048:1,2017-10-03T20:00:00Z,27.9396,-96.8429,2.0,231.9529558,59.40252941,-99999.0,'11111222,11111222,99999999' 
TABS,ioos:station:wmo:42048:1,2017-10-03T20:30:00Z,27.9396,-96.8429,2.0,227.4377272,61.50325195,-99999.0,'11111222,11111222,99999999' 
TABS,ioos:station:wmo:42048:1,2017-10-03T21:00:00Z,27.9396,-96.8429,2.0,228.9945876,61.10106546,-99999.0,'11111222,11111222,99999999' 
TABS,ioos:station:wmo:42048:1,2017-10-03T21:30:00Z,27.9396,-96.8429,2.0,225.4217898,65.26772709,-99999.0,'11111222,11111222,99999999' 
TABS,ioos:station:wmo:42048:1,2017-10-03T22:00:00Z,27.9396,-96.8429,2.0,225.6557803,68.54435425,-99999.0,'11111222,11111222,99999999' 
TABS,ioos:station:wmo:42048:1,2017-10-03T22:30:00Z,27.9396,-96.8429,2.0,224.9190512,70.34305225,-99999.0,'11111222,11111222,99999999' 
TABS,ioos:station:wmo:42048:1,2017-10-03T23:00:00Z,27.9396,-96.8429,2.0,225.6357805,72.61019901,-99999.0,'11111222,11111222,99999999' 
TABS,ioos:station:wmo:42048:1,2017-10-03T23:30:00Z,27.9396,-96.8429,2.0,226.9841903,72.89693341,-99999.0,'11111222,11111222,99999999' 
TABS,ioos:station:wmo:42048:1,2017-10-04T00:00:00Z,27.9396,-96.8429,2.0,227.5902321,81.19519752,-99999.0,'11111222,11111222,99999999' 
TABS,ioos:station:wmo:42048:1,2017-10-04T00:30:00Z,27.9396,-96.8429,2.0,222.946098,79.52280491,-99999.0,'11111222,11111222,99999999' 
TABS,ioos:station:wmo:42048:1,2017-10-04T01:00:00Z,27.9396,-96.8429,2.0,220.686444,85.08672811,-99999.0,'11111222,11111222,99999999' 
TABS,ioos:station:wmo:42048:1,2017-10-04T01:30:00Z,27.9396,-96.8429,2.0,222.7505581,86.66613237,-99999.0,'11111222,11111222,99999999' 
TABS,ioos:station:wmo:42048:1,2017-10-04T02:00:00Z,27.9396,-96.8429,2.0,222.9819485,89.37006937,-99999.0,'11111222,11111222,99999999' 
TABS,ioos:station:wmo:42048:1,2017-10-04T02:30:00Z,27.9396,-96.8429,2.0,222.9432577,91.82745777,-99999.0,'11111222,11111222,99999999' 
TABS,ioos:station:wmo:42048:1,2017-10-04T03:00:00Z,27.9396,-96.8429,2.0,224.6140982,97.71729888,-99999.0,'11111222,11111222,99999999' 
TABS,ioos:station:wmo:42048:1,2017-10-04T03:30:00Z,27.9396,-96.8429,2.0,224.7148732,100.9973094,-99999.0,'11111222,11111222,99999999' 
TABS,ioos:station:wmo:42048:1,2017-10-04T04:00:00Z,27.9396,-96.8429,2.0,222.9338913,101.4155259,-99999.0,'11111222,11111222,99999999' 
TABS,ioos:station:wmo:42048:1,2017-10-04T04:30:00Z,27.9396,-96.8429,2.0,218.6798079,92.56419448,-99999.0,'11111222,11111222,99999999' 
TABS,ioos:station:wmo:42048:1,2017-10-04T05:00:00Z,27.9396,-96.8429,2.0,224.0132488,73.93189975,-99999.0,'11111222,11111222,99999999' 
TABS,ioos:station:wmo:42048:1,2017-10-04T05:30:00Z,27.9396,-96.8429,2.0,228.1014754,59.32832376,-99999.0,'11111222,11111222,99999999' 
TABS,ioos:station:wmo:42048:1,2017-10-04T06:00:00Z,27.9396,-96.8429,2.0,228.8250872,66.55976562,-99999.0,'11111222,11111222,99999999' 
TABS,ioos:station:wmo:42048:1,2017-10-04T06:30:00Z,27.9396,-96.8429,2.0,227.7888365,66.84420843,-99999.0,'11111222,11111222,99999999' 
TABS,ioos:station:wmo:42048:1,2017-10-04T07:00:00Z,27.9396,-96.8429,2.0,230.3365574,70.54981928,-99999.0,'11111222,11111222,99999999' 
TABS,ioos:station:wmo:42048:1,2017-10-04T07:30:00Z,27.9396,-96.8429,2.0,232.2944969,65.99101227,-99999.0,'11111222,11111222,99999999' 
TABS,ioos:station:wmo:42048:1,2017-10-04T08:00:00Z,27.9396,-96.8429,2.0,230.2610352,66.85578285,-99999.0,'11111222,11111222,99999999' 
TABS,ioos:station:wmo:42048:1,2017-10-04T08:30:00Z,27.9396,-96.8429,2.0,226.7935639,63.69911302,-99999.0,'11111222,11111222,99999999' 
TABS,ioos:station:wmo:42048:1,2017-10-04T09:00:00Z,27.9396,-96.8429,2.0,228.1082512,64.02373076,-99999.0,'11111222,11111222,99999999' 
TABS,ioos:station:wmo:42048:1,2017-10-04T09:30:00Z,27.9396,-96.8429,2.0,224.9294456,63.44873915,-99999.0,'11111222,11111222,99999999' 
TABS,ioos:station:wmo:42048:1,2017-10-04T10:00:00Z,27.9396,-96.8429,2.0,226.8722554,70.1117237,-99999.0,'11111222,11111222,99999999' 
TABS,ioos:station:wmo:42048:1,2017-10-04T10:30:00Z,27.9396,-96.8429,2.0,227.9544119,67.49114312,-99999.0,'11111222,11111222,99999999' 
TABS,ioos:station:wmo:42048:1,2017-10-04T11:00:00Z,27.9396,-96.8429,2.0,228.6895591,69.44041475,-99999.0,'11111222,11111222,99999999' 
TABS,ioos:station:wmo:42048:1,2017-10-04T11:30:00Z,27.9396,-96.8429,2.0,227.953743,71.07382359,-99999.0,'11111222,11111222,99999999' 
TABS,ioos:station:wmo:42048:1,2017-10-04T12:00:00Z,27.9396,-96.8429,2.0,234.4897502,71.96427169,-99999.0,'11111222,11111222,99999999' 
TABS,ioos:station:wmo:42048:1,2017-10-04T12:30:00Z,27.9396,-96.8429,2.0,236.0499142,80.1660957,-99999.0,'11111222,11111222,99999999' 
TABS,ioos:station:wmo:42048:1,2017-10-04T13:00:00Z,27.9396,-96.8429,2.0,245.4257653,75.5531634,-99999.0,'11111222,11111222,99999999' 
TABS,ioos:station:wmo:42048:1,2017-10-04T13:30:00Z,27.9396,-96.8429,2.0,238.2941505,73.92208466,-99999.0,'11111222,11111222,99999999' 
TABS,ioos:station:wmo:42048:1,2017-10-04T14:00:00Z,27.9396,-96.8429,2.0,238.3467645,70.29720976,-99999.0,'11111222,11111222,99999999' 
TABS,ioos:station:wmo:42048:1,2017-10-04T14:30:00Z,27.9396,-96.8429,2.0,242.8744305,73.19000273,-99999.0,'11111222,11111222,99999999' 
TABS,ioos:station:wmo:42048:1,2017-10-04T15:00:00Z,27.9396,-96.8429,2.0,240.9137017,72.80080013,-99999.0,'11111222,11111222,99999999' 
TABS,ioos:station:wmo:42048:1,2017-10-04T15:30:00Z,27.9396,-96.8429,2.0,238.2754212,70.42180699,-99999.0,'11111222,11111222,99999999' 